Date String (YYYY-MM-DD hh:mm:ss) UTC,Instrument flags,Ambient pressure (hPa),Sample flow (lpm),Bypass flow (lpm),Sample temperature (°C),Ambient temperature (°C),ASC tube jacket temperature (°C),LED temperature (°C),Box temperature (°C),Sample RH (%),Span deviation,Mass concentration (μg/m³),Mass concentration (μg/m³),Mass concentration (μg/m³)
DateTimeUTC,F1_M11,P_M11,Q1_M11,Q2_M11,T1_M11,T2_M11,T3_M11,T4_M11,T5_M11,U1_M11,ZSPAN_M11,X0_M11,X2_M11,X1_M11
2022-06-19 07:00:00,,0823.3,5.00,0.00,29.6,28.1,00.0,38.3,31.4,22.3,0000.0,0007.46,0003.64,0002.37
2022-06-19 07:01:00,,0823.3,5.00,0.00,29.5,27.5,00.0,38.3,31.3,22.4,0000.0,0008.02,0003.66,0002.38
2022-06-19 07:02:00,,0823.3,5.00,0.00,29.5,27.4,00.0,38.2,31.2,22.4,0000.0,0008.06,0003.67,0002.38
2022-06-19 07:03:00,,0823.4,5.01,0.00,29.4,27.5,00.0,38.2,31.2,22.5,0000.0,0008.10,0003.67,0002.38
2022-06-19 07:04:00,,0823.3,4.99,0.00,29.4,27.6,00.0,38.2,31.2,22.6,0000.0,0008.18,0003.69,0002.39
2022-06-19 07:05:00,,0823.3,5.01,0.00,29.4,27.7,00.0,38.2,31.2,22.6,0000.0,0008.20,0003.71,0002.39
2022-06-19 07:06:00,,0823.3,5.00,0.00,29.4,27.8,00.0,38.2,31.3,22.6,0000.0,0008.28,0003.75,0002.41
2022-06-19 07:07:00,,0823.3,5.00,0.00,29.4,28.0,00.0,38.2,31.3,22.6,0000.0,0008.43,0003.76,0002.39
2022-06-19 07:08:00,,0823.4,5.00,0.00,29.4,28.1,00.0,38.2,31.3,22.6,0000.0,0008.31,0003.70,0002.38
2022-06-19 07:09:00,,0823.3,4.99,0.00,29.4,28.2,00.0,38.2,31.3,22.6,0000.0,0008.17,0003.67,0002.38
2022-06-19 07:10:00,,0823.3,5.02,0.00,29.5,28.3,00.0,38.3,31.4,22.5,0000.0,0008.28,0003.68,0002.36
2022-06-19 07:11:00,,0823.4,5.00,0.00,29.5,28.4,00.0,38.3,31.4,22.5,0000.0,0008.25,0003.68,0002.37
2022-06-19 07:12:00,,0823.4,5.00,0.00,29.5,28.5,00.0,38.3,31.4,22.5,0000.0,0007.63,0003.64,0002.36
2022-06-19 07:13:00,,0823.4,5.00,0.00,29.5,28.5,00.0,38.3,31.5,22.4,0000.0,0007.68,0003.67,0002.36
2022-06-19 07:14:00,,0823.4,5.00,0.00,29.6,28.6,00.0,38.3,31.5,22.4,0000.0,0007.75,0003.70,0002.36
2022-06-19 07:15:00,,0823.4,4.99,0.00,29.6,28.7,00.0,38.3,31.5,22.4,0000.0,0007.69,0003.70,0002.37
2022-06-19 07:16:00,,0823.4,5.00,0.00,29.6,28.7,00.0,38.3,31.6,22.4,0000.0,0007.56,0003.65,0002.37
2022-06-19 07:17:00,,0823.4,5.00,0.00,29.6,28.2,00.0,38.3,31.5,22.4,0000.0,0008.55,0003.65,0002.36
2022-06-19 07:18:00,,0823.4,5.00,0.00,29.5,27.5,00.0,38.3,31.3,22.4,0000.0,0008.59,0003.66,0002.37
2022-06-19 07:19:00,,0823.4,5.01,0.00,29.5,27.4,00.0,38.2,31.2,22.5,0000.0,0008.67,0003.70,0002.39
2022-06-19 07:20:00,,0823.3,4.98,0.00,29.4,27.4,00.0,38.2,31.2,22.6,0000.0,0008.75,0003.70,0002.37
2022-06-19 07:21:00,,0823.4,5.00,0.00,29.4,27.5,00.0,38.2,31.2,22.6,0000.0,0008.84,0003.72,0002.38
2022-06-19 07:22:00,,0823.3,5.01,0.00,29.4,27.7,00.0,38.2,31.2,22.7,0000.0,0009.46,0003.71,0002.36
2022-06-19 07:23:00,,0823.3,5.01,0.00,29.4,27.8,00.0,38.2,31.2,22.7,0000.0,0010.01,0003.73,0002.35
2022-06-19 07:24:00,,0823.4,5.00,0.00,29.4,28.0,00.0,38.2,31.3,22.7,0000.0,0010.25,0003.71,0002.32
2022-06-19 07:25:00,,0823.4,5.00,0.00,29.4,28.1,00.0,38.2,31.3,22.7,0000.0,0010.18,0003.69,0002.30
2022-06-19 07:26:00,,0823.3,4.99,0.00,29.4,28.2,00.0,38.2,31.3,22.7,0000.0,0010.06,0003.64,0002.28
2022-06-19 07:27:00,,0823.3,5.00,0.00,29.5,28.3,00.0,38.3,31.4,22.7,0000.0,0010.13,0003.66,0002.26
2022-06-19 07:28:00,,0823.3,5.00,0.00,29.5,28.4,00.0,38.3,31.4,22.6,0000.0,0009.16,0003.65,0002.24
2022-06-19 07:29:00,,0823.4,4.99,0.00,29.5,28.5,00.0,38.3,31.4,22.6,0000.0,0008.90,0003.58,0002.22
2022-06-19 07:30:00,,0823.4,5.00,0.00,29.5,28.5,00.0,38.3,31.5,22.5,0000.0,0008.83,0003.55,0002.19
2022-06-19 07:31:00,,0823.4,5.00,0.00,29.5,28.6,00.0,38.3,31.5,22.5,0000.0,0008.82,0003.55,0002.16
2022-06-19 07:32:00,,0823.3,5.00,0.00,29.6,28.7,00.0,38.3,31.5,22.4,0000.0,0008.65,0003.51,0002.11
2022-06-19 07:33:00,,0823.3,5.01,0.00,29.6,28.7,00.0,38.3,31.6,22.4,0000.0,0008.32,0003.49,0002.10
2022-06-19 07:34:00,,0823.4,5.00,0.00,29.6,28.8,00.0,38.4,31.6,22.3,0000.0,0008.03,0003.45,0002.09
2022-06-19 07:35:00,,0823.3,5.01,0.00,29.6,28.3,00.0,38.3,31.5,22.3,0000.0,0007.79,0003.45,0002.10
2022-06-19 07:36:00,,0823.4,5.00,0.00,29.6,27.6,00.0,38.3,31.3,22.3,0000.0,0007.83,0003.45,0002.07
2022-06-19 07:37:00,,0823.4,5.00,0.00,29.5,27.4,00.0,38.3,31.2,22.4,0000.0,0007.85,0003.45,0002.07
2022-06-19 07:38:00,,0823.4,5.00,0.00,29.4,27.4,00.0,38.3,31.2,22.5,0000.0,0007.78,0003.42,0002.06
2022-06-19 07:39:00,,0823.4,5.00,0.00,29.4,27.5,00.0,38.3,31.2,22.5,0000.0,0007.79,0003.39,0002.06
2022-06-19 07:40:00,,0823.4,5.00,0.00,29.4,27.6,00.0,38.3,31.2,22.6,0000.0,0007.82,0003.41,0002.06
2022-06-19 07:41:00,,0823.4,5.00,0.00,29.4,27.8,00.0,38.2,31.2,22.6,0000.0,0007.83,0003.42,0002.07
2022-06-19 07:42:00,,0823.4,4.99,0.00,29.4,27.9,00.0,38.2,31.3,22.6,0000.0,0007.81,0003.41,0002.08
2022-06-19 07:43:00,,0823.4,5.01,0.00,29.4,28.0,00.0,38.3,31.3,22.6,0000.0,0007.71,0003.39,0002.10
2022-06-19 07:44:00,,0823.4,5.00,0.00,29.4,28.1,00.0,38.3,31.3,22.6,0000.0,0007.41,0003.41,0002.10
2022-06-19 07:45:00,,0823.4,5.00,0.00,29.4,28.2,00.0,38.3,31.4,22.6,0000.0,0007.29,0003.49,0002.10
2022-06-19 07:46:00,,0823.4,5.00,0.00,29.5,28.3,00.0,38.3,31.4,22.5,0000.0,0007.36,0003.51,0002.10
2022-06-19 07:47:00,,0823.3,4.99,0.00,29.5,28.4,00.0,38.3,31.4,22.5,0000.0,0007.48,0003.53,0002.10
2022-06-19 07:48:00,,0823.4,5.00,0.00,29.5,28.5,00.0,38.3,31.5,22.4,0000.0,0007.97,0003.58,0002.11
2022-06-19 07:49:00,,0823.3,5.00,0.00,29.5,28.6,00.0,38.3,31.5,22.4,0000.0,0008.06,0003.62,0002.13
2022-06-19 07:50:00,,0823.3,5.00,0.00,29.6,28.6,00.0,38.3,31.5,22.3,0000.0,0008.07,0003.65,0002.13
2022-06-19 07:51:00,,0823.4,5.01,0.00,29.6,28.7,00.0,38.3,31.6,22.3,0000.0,0008.60,0003.62,0002.13
2022-06-19 07:52:00,,0823.4,5.00,0.00,29.6,28.7,00.0,38.4,31.6,22.2,0000.0,0009.01,0003.62,0002.13
2022-06-19 07:53:00,,0823.4,5.01,0.00,29.6,28.8,00.0,38.4,31.6,22.2,0000.0,0009.03,0003.65,0002.16
2022-06-19 07:54:00,,0823.4,5.00,0.00,29.7,28.5,00.0,38.4,31.5,22.1,0000.0,0009.38,0003.69,0002.18
2022-06-19 07:55:00,,0823.4,5.01,0.00,29.6,27.7,00.0,38.3,31.4,22.2,0000.0,0009.78,0003.73,0002.19
2022-06-19 07:56:00,,0823.4,5.00,0.00,29.5,27.5,00.0,38.3,31.3,22.2,0000.0,0009.80,0003.73,0002.22
2022-06-19 07:57:00,,0823.3,4.99,0.00,29.5,27.5,00.0,38.3,31.2,22.3,0000.0,0009.68,0003.68,0002.21
2022-06-19 07:58:00,,0823.4,5.00,0.00,29.4,27.5,00.0,38.3,31.2,22.3,0000.0,0009.55,0003.65,0002.23
2022-06-19 07:59:00,,0823.4,5.00,0.00,29.4,27.6,00.0,38.3,31.2,22.3,0000.0,0009.11,0003.62,0002.23
